NOAA 16 DEB, 41505

Orbit data source: Space-Track

NOAA 16 DEB, 41505 is space debris in SSO originally from a launch on Thu, 21 Sep 2000 UTC launched from the Air Force Western Test Range (AFWTR). Debris objects in space refer to the collection of defunct objects orbiting the Earth. Examples of debris include non-operational satellites, rocket bodies, and fragments generated from explosions, collisions, or faulty payload assembly.

Loading next visibility...
Identifier
41505, 2000-055MD
Orbit
SSO
Country
Flag of USUS
Related business
Manufacturer
Unknown
Mission
Spacecraft
Bus & Motor
Unknown
Mass
Unknown
Launch date (UTC)
2000-09-21 (26 years ago)
Launch vehicle
Unknown
Launch site
Air Force Western Test Range (AFWTR)
Object type
Payload
Rocket body
Debris
Shape & HBR
Unknown shape, 0.1 m
Radar Cross Section
Small (<0.1 m²)

Expand to show TLE details & history
Last TLE update: 5 days ago

TLE from 5 days ago
0 NOAA 16 DEB
1 41505U 00055MD  26174.08041356  .00004657  00000-0  13870-2 0  9995
2 41505  98.8458 306.3410 0034000  87.7289 272.7793 14.43262184538686
Epoch: 2026-06-23T01:55Z
TLE epoch observation values (Epoch: 2026-06-23T01:55:47.731Z)
Latitude
0.00004°
Longitude
6.135°
Altitude
749.59 km
Speed
7.48 km/s
True Right ascension
20h 25m 21s
True Declination
0° 00' 00"
Sunlit
Object was in full shadow at epoch
Visualization orbit readout
Latitude
Unknown
Longitude
Unknown
Altitude
Unknown
Speed
Unknown
Apparent Right ascension
Unknown
Apparent Declination
Unknown
Sunlit
N/A
Visualization observer readout
Local Sidereal Time
08:02:45
Azimuth
Unknown
Elevation
Unknown
Doppler factor
Unknown
Orbital elements
Apogee altitude
769.093 km
Perigee altitude
720.656 km
Semi-major axis
7,123.012 km
Eccentricity
0.0034
Inclination
98.8458°
RAAN
306.341°
Arg. of periapsis
87.7289°
True anomaly
272.39007°
Mean anomaly
272.7793°
Eccentric anomaly
272.58469°
Mean motion
3.61034 °/min
Orbital period
99.71 mins
BSTAR
0.001387
Loading maneuver chart data...
Computing Atmospheric mass density...
Loading historical data...
Loading historical data...
Loading historical data...
Loading historical data...
Loading historical data...
Loading historical data...
Loading historical data...

Documentation

Showing up to 5 results
|